Theta_e
308 308 309 308 308 308 308 308 308 308 308 309 309 309 309 309 309 310 309 308 308 308 308 308 308 308 308 307 307 307 307 307 307 306 305 304 303 302 300 298 297 297 297 297 298 297 296 295 295 295 296 294 294 293 293 292 292 291 290 290 289 289 287 286 285 286 290 292 291 290 289 287 285 285 284 284 283 284 285 283 285 285 285 285 285
307 307 308 308 307 307 307 308 307 307 307 307 307 307 307 308 308 308 307 308 308 307 307 307 307 307 307 307 307 307 307 307 307 306 304 303 301 301 300 297 297 296 297 297 297 296 295 295 295 295 295 294 294 293 293 292 291 290 290 289 288 289 289 287 286 286 287 290 288 286 285 286 284 285 284 283 282 283 283 283 283 285 284 284 283
307 307 307 306 306 306 306 306 306 305 305 306 306 306 306 306 307 306 306 307 307 306 306 307 306 306 306 306 306 306 306 306 306 305 304 303 301 300 300 297 296 296 295 295 296 297 295 294 294 295 295 294 294 294 294 292 291 290 289 288 288 288 289 288 287 286 286 287 290 289 286 284 283 284 284 284 283 283 283 283 282 283 283 283 283
306 305 305 305 305 305 304 304 304 304 304 304 305 305 305 305 306 305 305 306 305 305 305 306 305 305 304 304 304 304 304 304 304 304 304 303 302 301 299 298 297 297 296 296 296 296 295 294 295 295 295 294 294 293 293 292 292 291 290 289 289 288 289 288 288 287 287 286 289 290 288 283 283 284 284 284 284 283 282 283 283 282 282 282 282
304 304 304 304 303 303 303 303 302 302 303 304 304 304 304 304 304 304 303 303 303 303 302 303 303 303 303 303 303 302 302 303 303 303 302 302 302 301 301 300 298 297 297 297 294 296 295 295 295 295 295 294 293 293 293 292 292 291 291 291 290 290 289 288 288 287 286 286 287 290 289 285 285 285 285 284 284 283 282 281 282 282 281 281 282
303 303 303 302 302 301 301 301 301 301 301 302 302 302 302 301 302 302 302 302 302 301 301 301 301 301 302 303 303 303 302 302 302 302 302 302 301 301 301 300 299 298 297 296 296 296 296 296 296 296 295 294 294 294 294 293 292 292 291 291 290 290 290 289 288 287 287 287 287 287 287 284 285 283 283 283 282 281 280 281 281 281 281 280 281
301 302 302 302 302 301 301 300 301 301 301 301 301 300 300 300 299 300 300 299 299 300 300 300 300 301 301 302 302 302 302 302 301 301 301 301 301 300 300 299 299 299 299 298 297 297 296 296 296 296 295 295 295 295 295 295 294 293 292 292 292 291 290 289 288 287 287 286 287 287 287 287 286 284 283 282 282 281 279 279 278 280 280 280 279
300 300 300 300 301 301 301 301 300 300 300 299 299 299 298 298 298 298 298 298 298 299 299 299 300 300 300 301 301 301 301 301 301 301 300 301 301 300 300 299 298 298 298 298 298 298 297 297 297 297 297 296 296 296 295 294 294 293 293 292 292 291 290 289 288 287 287 287 286 286 287 286 287 284 282 281 280 280 280 279 278 278 278 279 279
299 299 299 300 301 301 300 299 298 298 298 297 297 297 297 297 297 297 297 297 298 298 298 299 298 298 299 299 299 299 299 299 300 300 300 300 300 300 300 299 299 299 298 298 298 298 298 297 297 298 296 293 292 293 294 294 295 293 293 293 292 291 290 289 288 287 287 287 286 287 286 286 286 286 282 280 280 280 281 280 279 280 280 278 279
299 299 299 300 300 299 298 297 297 297 297 297 297 297 296 296 296 296 295 296 297 297 297 297 297 297 297 298 298 298 298 299 295 293 294 298 299 299 299 299 299 298 298 298 298 298 298 298 297 291 291 290 290 291 292 292 292 294 295 294 292 290 289 288 288 288 287 286 286 286 286 285 285 286 284 282 281 281 280 280 278 279 278 278 278
298 298 299 299 298 297 297 298 297 297 297 296 296 295 295 295 295 295 295 295 295 295 295 296 296 296 296 297 297 298 298 298 292 294 294 293 295 297 298 298 299 298 297 296 296 297 298 298 298 294 291 290 291 290 292 292 292 292 292 292 292 291 289 288 288 288 287 286 287 287 286 286 286 287 286 284 282 281 280 280 279 278 276 275 274
298 298 298 297 297 297 297 297 296 295 294 294 294 294 294 293 293 294 294 293 294 294 294 295 295 296 296 296 296 296 297 293 293 293 293 293 293 295 296 296 297 297 297 297 297 297 297 297 297 297 297 296 296 295 293 291 291 291 291 291 291 292 292 290 289 288 288 287 287 288 287 287 287 287 286 284 282 281 280 279 279 278 277 275 276
297 297 296 296 296 296 295 295 295 294 294 293 290 290 290 291 290 291 291 294 294 293 294 294 295 295 295 295 295 296 296 293 293 293 293 293 293 293 295 295 295 295 296 296 297 297 297 296 296 297 298 290 291 295 296 295 291 290 290 290 290 291 292 293 292 290 290 289 288 287 288 288 287 287 287 285 284 280 280 279 279 279 278 277 277
296 296 295 295 294 294 294 292 292 294 292 290 290 289 290 290 292 293 291 291 292 292 293 293 293 294 294 294 294 295 295 292 293 292 292 292 292 293 294 295 295 295 295 296 296 295 295 295 295 295 296 296 296 294 294 294 294 293 292 292 292 290 290 291 291 290 290 289 289 288 289 289 288 288 287 286 283 281 280 279 279 278 279 278 280
294 294 293 293 293 293 293 293 293 291 290 289 289 289 289 290 289 289 290 291 290 290 291 290 292 292 293 293 293 293 294 292 292 292 292 292 292 292 294 294 295 295 295 295 296 295 295 295 295 295 295 295 296 294 293 293 291 290 289 289 290 291 291 290 290 290 290 290 289 289 289 289 289 288 287 285 284 283 282 281 281 280 281 282 282
294 294 293 293 293 293 292 293 291 290 290 289 289 289 290 289 289 289 290 290 290 291 290 290 289 289 290 292 292 292 292 291 291 291 291 292 292 292 293 293 293 294 294 294 294 295 295 294 294 294 294 294 292 292 292 293 290 288 288 288 288 289 290 289 290 290 289 289 289 289 289 289 290 288 287 285 284 284 284 283 283 282 280 279 277
291 291 291 292 291 292 292 291 289 289 288 288 288 288 288 288 289 289 289 289 290 290 289 289 290 290 289 289 290 291 291 291 291 290 291 291 291 291 291 291 291 292 292 293 293 293 294 294 293 293 293 293 292 292 292 290 289 287 287 287 287 288 288 289 290 290 290 290 290 291 291 292 292 292 291 288 285 285 283 281 280 281 278 277 278
289 289 290 290 290 290 290 289 288 287 287 287 287 287 288 288 288 288 289 289 289 289 290 290 290 289 288 288 290 289 289 290 290 290 290 291 290 290 290 290 290 290 290 292 292 293 293 288 289 292 292 292 291 292 292 290 288 287 287 286 286 286 287 288 287 287 289 289 289 289 290 290 290 291 290 289 288 286 282 279 281 280 278 278 276
287 287 288 288 288 289 289 287 287 286 286 286 286 286 286 287 288 288 288 288 288 289 289 289 289 289 288 288 287 287 288 288 289 289 290 290 290 289 290 290 289 289 290 290 292 292 292 290 287 289 290 291 291 291 291 290 288 287 287 286 286 286 287 287 286 286 285 285 285 285 286 287 287 287 287 288 288 285 284 283 283 280 278 279 278
286 286 287 287 288 287 286 285 285 285 285 285 285 286 286 287 287 287 287 288 288 289 289 288 287 287 288 288 288 288 288 288 288 289 289 289 290 289 290 289 289 288 289 289 289 290 291 291 291 290 290 290 290 291 291 291 288 287 287 287 286 286 288 287 286 286 285 285 284 285 285 285 286 286 286 286 286 285 284 284 283 282 280 280 280
285 285 286 286 285 285 285 285 284 284 285 284 285 285 286 286 286 286 286 287 287 287 286 286 286 287 288 288 288 288 288 287 287 288 289 289 289 289 288 288 288 288 289 289 289 288 289 290 291 290 290 290 290 290 290 290 290 288 287 287 287 287 288 287 286 285 284 284 284 284 284 284 284 285 285 285 285 285 284 284 284 284 282 280 280
284 285 285 284 284 284 284 284 284 284 284 284 284 284 285 285 284 285 286 286 285 285 285 286 286 287 287 288 288 287 287 286 287 287 288 288 289 289 288 288 288 288 288 287 288 288 288 289 289 289 289 289 289 290 290 290 290 289 288 289 289 289 287 287 286 285 284 283 283 283 283 283 283 283 283 284 284 284 284 283 284 283 283 283 282
283 284 283 283 283 283 283 283 283 284 284 284 283 283 284 284 284 284 284 284 284 284 285 285 286 286 287 288 289 288 288 287 286 286 286 287 288 288 288 288 289 288 287 286 287 288 289 289 289 288 288 288 289 289 289 290 289 288 289 289 289 289 288 287 284 283 283 282 282 281 282 282 282 282 282 283 284 284 284 283 283 284 283 283 282
282 282 282 282 282 282 282 282 283 283 283 283 283 283 283 283 284 284 285 284 285 285 286 286 286 286 286 287 288 289 288 288 286 285 285 286 287 287 288 288 288 287 287 287 287 287 288 288 288 288 288 288 288 289 289 288 288 289 289 289 289 288 287 286 284 283 282 281 281 280 280 281 281 281 282 282 283 283 283 283 282 281 280 279 279
280 280 280 280 281 281 281 282 282 283 282 283 282 282 282 283 282 284 284 284 284 285 285 286 286 286 286 286 287 288 288 288 287 286 284 284 285 286 286 287 287 287 286 286 287 287 287 288 288 288 288 288 288 288 288 287 288 288 288 288 286 287 286 285 283 282 281 280 280 280 280 280 281 281 282 283 282 282 279 278 278 277 276 275 275
277 279 278 278 279 279 279 280 281 281 281 281 281 281 281 281 281 282 283 283 284 284 285 285 285 285 286 286 287 287 287 287 287 286 285 284 284 284 285 285 284 284 284 284 284 285 285 286 286 286 286 287 287 287 287 287 286 286 286 286 286 286 285 284 282 281 280 280 280 279 280 280 281 281 281 281 279 278 277 276 274 274 275 275 273
274 276 276 277 278 278 277 278 278 279 279 280 280 280 281 281 281 282 282 283 284 284 284 284 285 285 285 286 286 286 286 287 287 286 286 286 286 285 285 284 284 283 284 284 284 285 286 285 285 286 286 286 286 286 285 285 285 285 285 285 285 285 285 284 282 281 280 280 280 280 280 281 280 279 278 278 278 278 278 276 275 274 274 275 273
272 273 273 275 275 276 275 275 275 277 277 277 278 279 280 281 281 281 282 282 282 283 283 284 284 284 284 285 285 284 285 286 286 286 286 286 286 286 286 285 284 284 284 285 285 285 284 284 285 285 285 285 285 285 285 285 284 284 284 284 285 285 284 283 283 282 281 281 280 281 279 278 277 278 278 277 277 277 277 276 275 273 274 273 271
271 272 272 273 273 273 273 274 274 274 275 276 277 278 278 279 279 280 281 282 282 281 281 282 282 283 283 283 283 283 284 284 285 286 285 285 285 285 285 285 285 286 285 286 284 284 285 285 284 284 284 284 283 283 282 282 282 283 283 283 284 284 283 282 280 280 280 280 279 279 278 278 277 277 277 277 276 276 277 276 275 274 274 274 273
270 270 271 270 271 271 272 272 273 273 274 274 275 276 277 279 279 279 279 281 282 282 282 281 282 283 283 283 284 282 282 284 285 285 285 285 285 286 286 286 286 286 286 286 285 284 283 283 283 283 283 282 282 281 281 281 281 281 281 282 282 283 282 281 281 280 280 280 280 279 277 277 276 276 276 276 275 275 276 276 274 274 273 273 272
269 269 269 269 270 270 271 271 272 272 273 273 274 274 275 278 280 280 280 281 281 281 282 283 283 284 283 283 284 285 285 285 285 285 285 285 285 285 286 286 286 286 286 285 284 283 283 282 282 283 282 282 281 280 281 280 280 280 280 281 282 282 281 281 281 281 280 279 279 278 277 276 276 276 275 275 275 275 275 276 275 274 274 274 272
267 268 269 269 270 270 271 271 272 272 272 272 273 273 274 274 276 279 280 280 281 281 281 282 282 283 283 283 283 283 284 284 285 285 285 285 285 285 286 286 286 286 286 286 283 282 283 282 282 282 282 280 280 280 280 280 280 280 280 280 280 282 281 280 281 281 279 278 278 277 277 277 276 276 276 276 275 275 274 274 274 273 273 274 273
265 267 268 269 269 270 271 271 271 272 271 272 272 273 273 274 273 274 277 279 280 280 281 281 282 283 283 283 283 283 283 284 284 284 285 285 285 285 285 286 286 286 286 284 282 282 282 282 282 282 281 280 280 280 280 280 280 280 281 280 280 281 281 281 282 280 279 278 278 277 277 277 277 276 276 276 275 274 274 273 273 273 273 273 272
265 266 267 268 268 269 270 271 271 271 272 272 272 273 273 274 273 274 274 275 277 279 281 281 282 282 283 283 283 283 284 284 284 284 284 284 285 285 285 285 286 286 285 282 282 281 282 282 282 281 281 281 280 280 280 280 281 280 281 281 281 281 281 281 280 279 278 279 278 278 277 277 277 276 275 275 275 274 274 273 273 272 272 272 272
265 266 267 268 268 269 269 270 271 271 271 271 272 272 273 274 275 274 275 275 275 276 277 279 281 282 282 283 283 283 283 283 283 284 284 284 284 285 285 283 282 283 283 283 283 282 282 282 281 281 281 280 280 280 280 280 281 281 280 280 281 281 281 280 280 279 279 279 278 278 277 277 277 277 276 275 274 273 273 272 272 272 272 272 271
265 266 267 267 268 268 269 269 270 270 271 272 273 273 274 275 275 275 276 276 276 276 277 279 280 281 282 282 283 283 283 283 283 283 283 283 284 284 282 281 281 281 282 282 282 282 282 282 282 281 281 281 281 281 281 281 281 281 281 280 280 280 280 280 280 279 279 279 278 278 278 277 277 277 276 275 274 274 273 272 272 272 272 272 272
264 265 266 266 267 267 268 269 269 270 271 272 273 273 274 275 275 276 276 276 276 277 277 278 279 280 281 282 282 282 282 282 282 282 282 283 283 283 282 282 281 281 281 281 281 281 281 282 282 282 282 281 281 281 281 281 281 280 281 281 281 280 280 280 281 280 279 278 278 278 277 277 277 276 276 275 274 274 274 273 272 272 272 271 271
264 264 265 265 266 266 267 268 269 270 271 272 272 273 273 274 275 275 275 276 276 277 277 278 278 278 278 279 282 281 280 281 281 281 282 282 282 282 282 282 281 281 281 281 281 281 281 282 282 281 281 282 281 281 281 281 281 281 280 280 281 281 281 280 280 280 279 279 278 278 277 277 277 276 275 275 274 273 273 272 272 271 271 271 270
264 264 265 265 266 266 267 268 269 270 270 271 272 272 273 273 274 274 275 275 276 276 276 277 277 277 278 279 278 279 279 278 278 278 279 279 280 280 280 280 280 280 280 281 280 280 280 281 281 281 281 281 281 281 281 281 281 281 281 281 280 281 280 280 279 279 279 278 278 278 277 277 276 276 275 275 273 273 273 272 272 271 270 270 270
263 264 264 265 266 267 268 268 269 270 271 271 271 272 272 272 273 273 273 273 274 274 275 275 275 276 277 277 276 277 276 276 277 277 277 278 278 278 279 278 278 278 278 279 279 279 279 279 279 279 280 280 281 281 281 281 281 281 281 280 280 280 280 280 279 279 278 278 278 277 277 276 276 276 275 275 274 274 273 271 271 271 271 270 270
263 264 264 265 266 267 268 269 269 270 270 270 270 270 270 271 272 272 272 272 272 273 273 273 274 275 275 275 276 276 275 275 276 276 276 277 277 277 278 278 278 277 278 278 278 278 278 278 278 278 278 278 278 279 279 280 280 280 280 279 280 279 279 279 279 278 278 278 277 277 276 276 275 274 273 274 274 274 273 272 271 271 271 270 270
263 263 264 265 266 267 267 268 268 268 268 269 269 269 269 269 269 269 269 269 269 270 270 270 271 271 272 273 274 274 274 275 275 275 276 276 277 277 277 278 278 278 278 278 278 277 277 277 277 277 277 277 277 277 277 277 278 278 279 279 278 278 278 278 278 278 277 277 276 276 275 275 274 274 274 274 274 273 273 271 271 271 270 270 270
262 263 264 265 265 265 265 266 267 266 267 267 267 268 268 268 267 267 267 267 267 267 267 267 268 269 269 271 271 272 272 272 272 273 273 274 275 275 275 274 274 275 275 275 275 275 275 276 276 276 275 275 275 276 276 276 276 276 277 277 277 277 277 277 277 277 277 276 276 275 275 275 274 274 274 273 273 272 271 271 270 270 270 269 269
262 263 263 264 264 264 265 265 265 265 265 266 266 266 266 266 266 266 265 265 265 265 265 266 266 266 267 268 268 268 268 268 268 268 268 268 268 269 269 269 269 269 270 270 270 271 272 273 274 274 273 273 273 272 273 273 274 274 274 275 275 275 276 276 276 276 276 275 275 274 274 273 273 273 272 272 272 271 270 270 270 269 269 268 268
262 262 262 262 263 263 263 263 264 264 264 264 264 265 265 265 264 264 264 264 264 264 264 264 264 264 265 265 265 265 265 265 266 265 265 265 265 265 266 266 267 267 266 266 266 266 267 269 270 271 272 272 271 271 271 271 271 272 272 272 273 273 274 275 275 276 276 275 274 273 273 272 272 272 272 272 271 271 270 270 269 267 267 267 266
261 261 261 262 262 262 262 262 262 263 262 262 263 263 263 263 263 263 263 263 263 263 263 263 263 263 263 263 263 264 264 264 263 263 263 263 263 263 264 264 264 265 265 264 264 264 264 265 266 267 267 267 268 268 268 268 268 268 269 270 270 271 272 272 273 273 274 274 274 273 272 272 272 271 270 271 271 270 270 269 268 268 267 267 266
260 260 261 261 261 261 261 261 261 261 261 261 262 261 262 262 262 262 262 262 262 262 262 262 262 262 262 262 262 262 262 262 262 262 262 262 262 262 262 262 262 263 263 263 262 262 262 262 263 263 264 264 265 265 265 266 266 266 266 266 267 268 270 270 271 272 273 273 273 272 272 271 271 271 269 270 269 269 268 268 267 266 267 266 266
259 260 260 260 260 260 260 260 260 260 260 260 261 261 261 261 261 261 261 261 261 261 261 261 261 261 261 261 261 261 261 261 261 261 261 261 261 261 261 261 261 261 261 261 261 261 261 261 261 261 261 262 262 263 263 264 264 264 264 265 265 265 264 265 269 270 272 272 272 272 271 271 271 270 269 269 268 268 267 266 266 266 266 265 265
259 259 259 259 259 259 259 259 259 259 259 260 260 260 260 260 260 260 260 260 260 260 260 260 260 260 261 261 261 261 261 261 261 261 260 260 260 260 260 260 260 260 260 260 260 260 260 260 260 260 260 261 261 261 262 262 263 263 264 264 264 264 264 263 265 266 266 269 270 270 270 270 269 268 268 268 268 267 267 266 265 265 264 264 264
258 258 258 258 258 258 258 258 258 258 259 259 259 259 259 259 259 259 259 259 259 260 260 260 259 260 260 260 260 260 260 260 260 260 260 260 260 260 260 260 260 260 260 260 260 260 260 260 260 260 260 260 260 261 262 263 264 264 264 264 264 263 264 264 264 263 265 268 268 269 269 268 268 267 267 267 267 266 266 265 264 264 263 263 263
256 257 257 257 257 257 257 257 257 257 257 258 258 258 258 258 258 258 259 258 258 258 259 259 259 259 259 260 260 259 259 259 260 260 260 260 260 260 259 259 259 259 260 260 260 260 260 259 259 259 259 260 260 261 262 263 264 264 264 264 264 263 263 263 263 263 263 264 267 267 267 267 266 266 266 266 266 266 264 264 263 263 263 263 262
Wind_Speed
7 8 7 7 7 8 7 7 7 6 6 7 7 7 7 6 6 6 5 7 7 7 8 9 9 9 9 9 9 9 9 12 10 10 10 9 8 8 7 8 10 10 9 10 10 9 10 11 12 12 11 10 10 10 10 10 10 10 10 10 10 9 11 13 15 18 9 11 11 8 3 6 7 10 14 15 13 12 13 14 9 10 8 6 11
8 7 6 6 7 7 7 5 5 5 6 7 8 7 6 7 7 7 8 9 10 10 10 8 8 9 9 9 9 9 9 11 12 10 10 10 8 7 8 8 9 10 9 10 10 8 9 12 12 12 10 12 11 11 10 10 11 11 12 10 10 14 12 13 15 16 21 9 10 4 5 7 11 9 13 15 16 12 13 14 11 10 7 5 12
6 6 6 6 7 6 6 6 5 6 7 7 8 7 7 6 6 8 9 9 9 9 10 10 11 9 8 9 9 9 9 10 9 11 11 11 10 9 9 8 10 10 10 11 10 10 10 11 13 12 9 11 13 13 11 12 10 12 13 11 13 13 12 14 12 15 18 13 9 10 10 7 9 8 10 11 13 13 16 15 15 14 14 16 9
5 5 5 6 6 6 6 6 6 7 7 7 8 7 6 6 6 9 9 9 9 8 9 10 10 10 10 8 8 9 9 9 9 9 12 12 12 12 10 9 9 10 10 10 10 10 11 11 13 12 11 12 12 11 11 11 11 13 12 12 14 14 13 11 14 14 14 14 9 11 9 7 7 7 6 8 9 10 12 10 12 13 15 13 13
5 5 6 6 6 6 6 6 6 7 7 6 7 6 6 6 6 8 8 8 9 8 8 8 10 10 10 11 10 10 10 10 9 9 9 11 12 11 11 10 10 10 11 11 11 11 11 13 13 12 12 13 12 12 11 13 12 12 12 10 11 11 10 11 13 13 14 16 16 10 8 7 5 6 7 7 7 9 8 11 12 14 14 13 8
6 6 6 6 6 6 6 6 7 7 6 6 6 6 5 5 5 6 8 9 9 8 8 8 8 9 10 11 12 11 9 9 9 9 9 9 10 11 11 11 11 11 11 11 11 11 12 13 13 12 12 13 13 12 12 14 12 13 13 10 9 10 12 11 11 12 13 17 14 13 8 9 7 5 6 8 7 6 6 7 7 8 8 6 7
5 6 5 6 5 6 6 6 5 5 5 5 4 4 4 4 5 6 6 8 8 8 8 8 8 9 10 10 11 12 10 8 9 9 9 9 10 13 12 12 12 12 11 11 11 11 12 12 12 12 13 13 14 13 13 13 11 13 14 13 12 12 12 11 11 13 13 14 13 11 10 10 10 11 6 7 6 7 7 7 10 8 8 10 9
5 5 5 5 5 5 4 4 3 3 3 2 3 4 4 4 5 4 5 8 8 8 8 8 8 9 9 10 11 10 9 10 9 9 9 10 11 12 12 12 12 11 11 11 11 12 13 13 13 13 13 13 13 14 13 13 11 13 12 11 11 11 11 11 11 11 12 10 11 10 9 10 9 8 2 7 8 7 9 9 8 9 11 10 11
4 4 5 5 4 3 2 1 1 2 2 3 4 4 4 4 4 4 5 7 7 7 7 8 8 9 9 9 10 10 10 8 7 7 8 9 11 13 13 13 13 12 13 13 13 13 13 12 13 13 14 16 19 17 15 14 12 13 12 10 11 12 12 10 10 11 11 12 13 11 12 11 10 11 8 9 13 17 9 9 10 9 8 10 11
4 4 3 3 1 1 1 1 2 3 3 4 4 3 3 3 4 5 5 6 6 6 7 7 7 8 9 9 9 9 9 9 8 10 9 10 10 10 11 13 14 13 13 14 15 14 12 13 13 16 17 18 19 19 19 20 20 16 13 10 11 10 11 11 11 11 10 12 13 10 12 12 9 12 11 11 6 3 5 9 11 7 7 7 4
3 2 2 1 1 1 1 2 2 2 2 2 2 2 3 3 4 5 5 5 5 5 6 7 7 7 8 9 9 9 8 8 9 10 11 13 10 10 11 12 13 14 14 14 15 15 15 15 15 13 14 16 17 18 19 21 21 22 23 20 15 12 11 12 13 11 10 11 12 11 11 13 11 10 12 8 9 10 10 9 10 9 10 10 12
3 2 1 1 1 1 0 0 1 1 1 2 3 3 3 4 4 4 4 4 4 4 5 5 5 6 6 8 8 8 8 7 10 11 11 12 11 10 10 11 11 14 14 15 14 14 15 14 13 10 12 12 12 14 17 20 22 22 22 22 22 23 20 15 13 11 13 12 11 14 12 13 11 9 9 7 9 9 10 9 9 12 11 11 10
2 2 2 2 1 1 0 1 2 2 2 2 1 1 2 2 2 2 3 4 3 4 5 5 5 6 6 8 8 8 8 7 9 11 11 12 13 12 10 11 12 13 13 14 16 15 15 13 13 12 9 12 12 13 14 14 16 20 22 23 23 23 23 24 22 17 11 13 14 15 13 10 12 11 8 10 8 10 9 9 8 7 9 10 11
4 3 3 1 0 1 2 1 2 3 2 2 2 2 2 2 2 2 1 2 4 4 5 6 6 6 7 8 8 8 9 7 9 11 12 12 13 12 11 12 13 14 15 14 14 13 13 13 14 12 10 10 11 10 10 11 11 12 13 12 13 16 19 22 23 25 21 16 14 16 13 8 13 10 6 9 11 12 10 11 12 12 13 14 16
3 3 2 2 2 2 2 3 2 1 1 1 1 1 1 1 2 2 2 2 2 3 3 4 6 6 7 7 8 9 7 7 9 11 12 12 12 12 11 11 12 13 14 15 16 15 13 13 14 15 14 13 13 9 9 10 10 11 11 12 12 12 11 12 12 13 13 14 15 16 16 12 12 11 6 8 13 13 14 16 17 17 16 9 1
4 2 3 2 1 1 1 1 0 0 0 0 0 1 1 1 2 2 2 2 2 2 3 4 4 4 5 7 8 10 8 7 9 10 12 12 12 9 9 11 12 12 13 13 13 12 12 13 13 14 14 15 14 13 13 11 10 12 13 13 11 11 11 10 13 14 12 12 12 14 13 13 14 11 8 8 9 9 7 5 5 6 6 7 8
5 4 4 4 3 3 2 2 1 1 1 2 2 2 2 2 2 2 2 2 3 3 3 4 4 4 4 5 8 9 9 9 9 10 12 12 10 7 7 8 10 11 12 11 11 12 12 12 12 12 13 14 13 14 15 14 11 13 13 14 12 11 10 7 13 18 18 20 21 21 21 20 19 18 18 17 13 10 8 7 9 8 8 9 8
5 5 5 5 4 4 3 2 2 2 2 2 2 2 2 2 2 2 2 3 4 3 3 4 4 4 5 5 7 7 8 8 8 9 11 12 11 7 7 9 10 11 11 11 10 12 13 14 14 13 14 14 13 14 14 12 12 13 13 13 15 13 11 7 7 9 14 17 19 20 20 20 19 19 16 18 19 15 11 12 10 8 9 10 9
5 5 5 5 4 4 4 2 2 2 2 2 2 2 2 2 2 2 3 3 4 4 4 4 4 4 4 5 8 8 8 9 11 12 12 12 10 7 8 9 10 11 10 11 11 11 12 11 14 15 14 14 16 16 16 13 12 12 12 12 14 14 11 7 9 8 7 8 9 10 11 14 12 10 11 20 22 18 14 13 10 10 11 13 10
5 4 4 4 4 4 2 2 2 2 3 3 3 3 3 3 2 3 3 3 4 3 4 4 5 6 4 5 5 6 7 7 6 12 12 12 12 8 7 9 11 11 10 11 11 10 11 10 11 14 17 17 18 20 18 18 14 12 11 11 12 15 8 8 9 8 8 8 8 7 8 7 7 7 7 8 12 14 13 11 9 8 12 13 10
4 4 3 3 2 3 3 3 4 4 3 4 3 3 2 3 4 4 4 4 4 5 5 6 6 7 5 5 5 5 5 8 8 9 11 12 13 12 8 10 10 11 11 10 10 11 10 10 9 10 13 14 15 17 19 20 19 14 12 12 12 12 9 8 7 7 7 7 7 6 6 5 6 6 7 7 9 9 10 11 9 8 9 10 10
4 4 4 3 3 4 4 4 4 4 4 4 5 4 3 2 3 4 4 5 6 6 5 6 6 7 6 5 5 6 7 10 7 10 12 14 14 15 11 9 9 10 12 12 11 10 11 10 10 9 10 12 13 16 20 20 20 13 13 17 18 17 12 10 6 5 5 5 5 6 8 7 8 8 8 8 8 9 9 10 11 10 9 10 11
5 4 3 4 5 5 5 5 4 3 4 4 4 5 5 4 4 4 5 5 6 7 6 5 6 7 6 6 5 5 4 6 10 8 11 13 15 15 17 13 13 11 11 13 11 11 10 10 10 11 12 12 14 17 19 20 17 13 17 17 17 17 14 6 3 4 5 5 5 8 8 7 7 8 8 7 7 7 9 9 9 9 8 5 1
4 4 4 5 5 4 5 5 4 4 4 5 5 5 5 5 5 4 4 5 5 6 5 4 5 6 6 6 3 4 3 4 7 10 10 12 13 15 16 17 17 11 11 12 11 10 10 10 9 12 12 13 16 18 19 18 13 14 15 16 16 14 8 6 6 5 5 5 7 8 7 7 6 7 7 6 6 7 7 6 4 3 4 5 4
6 6 6 6 6 6 6 5 5 5 5 5 5 5 6 5 5 4 4 5 5 6 6 4 5 6 6 7 6 4 3 3 3 6 10 10 12 15 16 16 16 17 13 11 11 11 12 14 15 15 15 16 17 18 17 18 20 19 17 16 13 8 7 6 6 5 7 9 8 7 7 7 6 6 4 5 3 3 5 5 6 6 7 8 7
8 9 8 6 7 7 8 7 6 6 6 4 4 4 5 5 5 5 5 5 5 5 6 5 5 6 7 7 6 5 4 4 5 4 5 7 8 12 15 14 14 15 14 13 16 19 19 19 20 19 18 16 13 11 10 9 12 14 15 14 7 8 5 5 5 6 9 9 8 7 6 5 4 2 2 3 5 5 6 6 6 5 7 7 7
7 7 7 7 6 6 7 5 7 6 5 4 4 4 4 4 5 5 5 5 6 6 6 6 6 6 7 8 7 7 6 5 4 3 3 4 4 5 6 6 9 9 8 7 9 9 10 10 8 11 11 14 15 14 12 11 9 7 6 6 6 6 5 6 6 7 6 6 5 5 3 2 4 5 4 5 5 5 6 6 7 6 6 6 8
6 7 7 7 6 7 6 7 7 5 5 6 6 5 4 4 5 5 5 5 6 7 6 7 7 7 8 8 9 9 8 5 4 4 4 4 7 9 9 9 8 6 6 6 7 8 9 10 10 8 8 8 8 9 7 5 5 5 5 5 5 5 5 6 6 5 5 4 2 2 2 3 4 5 4 5 5 5 6 6 8 6 6 7 7
6 6 6 6 5 6 6 6 6 7 7 6 5 5 6 6 6 7 6 5 5 6 7 8 8 7 9 9 10 11 9 7 3 5 6 11 12 11 11 9 9 10 12 14 10 10 9 9 9 10 9 9 7 6 4 4 4 4 4 5 4 4 5 6 7 8 5 5 6 7 6 5 5 4 5 5 5 5 5 6 6 7 5 4 6
5 5 5 5 6 6 6 6 6 6 7 7 8 8 7 10 10 8 8 7 11 14 12 11 10 9 11 11 10 11 13 12 16 20 21 19 19 20 19 18 18 16 16 21 15 13 11 10 9 10 10 9 7 5 5 3 3 4 4 5 5 5 6 6 6 6 6 7 7 7 6 5 5 5 6 5 5 4 6 8 7 7 8 8 6
4 5 5 5 6 6 6 6 7 6 7 7 8 9 10 7 7 12 14 14 14 15 16 18 19 18 14 14 14 19 21 24 24 22 21 20 19 19 18 19 18 18 18 13 10 11 9 9 10 9 9 9 7 5 4 4 5 6 6 6 6 7 6 6 7 7 5 5 6 5 4 6 6 6 6 6 6 5 5 5 6 6 7 7 6
5 6 6 6 7 7 6 6 7 7 7 7 8 9 9 11 11 6 8 14 14 14 16 17 18 18 19 18 16 14 16 18 19 20 20 21 21 20 20 20 19 19 18 17 12 11 10 10 10 9 8 8 7 5 5 5 6 6 6 6 6 7 6 7 6 6 5 5 5 5 7 6 7 6 6 6 6 6 6 6 6 6 6 5 5
6 6 6 6 6 7 7 7 7 7 8 9 9 8 9 9 11 13 11 11 15 17 17 16 16 16 17 18 19 19 19 20 22 21 19 19 19 19 19 19 19 18 18 12 10 10 10 10 10 9 8 7 6 6 7 7 6 6 6 7 7 6 6 6 6 6 6 7 7 7 7 7 7 6 6 6 6 6 6 6 6 6 6 6 5
7 6 6 7 8 7 7 7 8 8 9 9 9 9 9 9 10 11 13 14 10 9 11 13 14 17 17 18 19 19 19 19 19 20 19 18 17 18 17 14 17 17 15 11 10 9 9 9 9 8 7 6 6 6 6 6 6 6 7 7 7 6 5 5 5 6 6 7 8 8 7 7 7 7 6 6 6 6 7 6 6 7 7 8 7
6 7 9 8 6 6 7 6 7 7 7 7 8 8 8 9 9 10 10 12 13 13 11 10 11 14 14 15 17 19 18 19 18 18 18 17 17 17 17 11 9 7 7 7 8 9 9 8 8 7 5 5 6 6 6 6 6 7 7 6 5 4 4 5 6 6 6 7 7 6 7 7 8 8 8 7 7 7 7 8 7 8 8 8 7
6 6 6 6 6 6 6 7 7 7 7 7 7 7 8 9 9 10 10 11 11 12 12 10 10 12 17 17 18 18 17 17 16 17 17 18 17 15 9 9 9 7 7 6 7 7 8 8 8 7 5 4 4 5 6 6 7 7 6 5 5 4 4 5 6 7 7 7 7 7 7 7 7 7 7 8 8 8 8 7 8 9 9 9 9
6 6 6 6 6 6 7 7 7 7 8 9 8 8 8 8 9 9 9 10 10 10 11 12 11 10 9 7 10 13 17 16 16 17 17 16 16 10 7 8 8 7 6 6 6 6 7 7 6 7 5 5 5 4 5 6 5 5 6 6 5 5 5 6 7 6 7 7 7 7 8 7 8 8 8 8 8 9 7 6 8 9 9 8 7
6 6 7 8 8 8 8 7 8 10 9 8 8 8 9 9 9 9 10 10 10 10 11 11 10 10 10 10 11 9 12 15 16 12 10 8 6 5 6 6 7 8 8 7 6 6 6 7 5 5 5 5 5 3 4 5 6 6 5 5 5 6 7 7 8 8 7 7 6 7 7 7 7 8 7 6 8 8 8 8 7 7 7 8 8
7 10 12 13 10 8 7 8 8 8 8 8 8 8 9 9 9 9 9 10 10 10 10 10 9 9 9 9 9 11 12 9 8 8 7 6 6 6 6 6 6 6 6 6 5 5 5 5 4 5 5 5 5 5 5 5 5 5 5 5 5 5 6 5 6 6 5 6 5 6 6 7 7 7 7 6 5 6 6 8 7 8 10 10 10
7 7 8 12 8 7 7 7 8 7 8 8 8 8 9 9 9 10 10 10 10 9 9 9 9 9 9 9 9 10 10 10 8 8 8 8 7 6 5 5 5 5 6 6 5 5 5 4 4 4 4 4 4 4 4 4 4 4 4 4 5 5 5 6 6 6 6 6 6 6 7 7 7 7 5 6 5 6 7 9 8 8 8 6 8
6 6 8 8 9 8 7 7 6 7 7 7 7 8 8 9 9 9 9 9 10 10 10 9 9 9 9 12 18 16 10 9 8 7 7 7 7 6 6 5 5 5 5 5 5 5 5 5 4 4 4 3 3 3 3 3 4 4 4 4 4 5 5 5 5 5 6 6 6 6 6 7 6 6 8 6 6 6 7 6 7 5 8 6 6
7 7 7 8 8 7 7 7 7 8 7 7 7 7 8 8 8 8 9 9 9 9 9 9 9 9 12 19 17 20 11 7 7 7 7 7 7 7 6 6 6 6 6 6 6 6 6 5 5 4 4 3 3 3 3 3 3 3 4 4 4 4 4 5 5 5 5 6 5 5 5 6 5 5 6 6 5 6 7 5 8 6 6 6 6
6 6 6 6 7 7 7 7 7 7 7 7 7 7 7 7 7 7 7 7 8 8 8 9 9 9 10 15 16 16 9 8 8 9 9 9 8 8 8 8 7 7 6 6 6 6 6 5 5 4 4 4 4 3 4 4 4 4 4 4 4 3 3 4 4 5 5 5 5 6 6 5 5 6 5 6 6 7 7 7 8 7 8 7 7
5 6 6 5 6 6 6 6 6 7 7 8 8 7 7 7 7 7 7 7 7 7 7 8 9 9 9 11 11 9 9 9 9 8 8 8 8 8 8 7 7 7 7 6 6 7 6 6 5 5 5 4 4 4 4 3 3 4 4 4 4 3 3 3 3 4 4 5 5 5 5 6 5 5 5 5 6 7 7 8 8 8 7 7 9
5 5 5 5 5 5 5 6 6 6 7 7 6 6 7 6 7 7 7 7 8 8 7 8 8 8 9 9 9 9 9 8 8 8 8 8 8 8 8 8 7 7 6 6 7 7 7 7 7 7 7 5 5 4 4 4 4 3 4 4 4 4 3 3 3 3 2 3 4 4 5 5 6 6 5 5 6 6 7 8 7 7 7 7 8
4 4 5 5 5 6 6 6 6 5 6 5 5 6 6 6 6 7 7 7 8 8 8 8 8 8 8 8 8 8 8 8 7 7 8 7 8 8 8 8 8 7 7 6 7 7 6 6 6 6 6 6 6 6 5 5 5 5 5 4 4 4 4 4 3 3 3 3 2 3 3 4 5 4 6 6 6 6 6 7 7 7 7 8 7
4 3 4 4 4 5 5 5 5 5 5 6 6 6 6 6 7 7 7 8 8 7 7 7 8 7 8 8 8 8 8 8 7 7 7 7 8 7 8 8 8 8 7 7 8 7 7 7 6 6 6 5 5 6 5 5 5 5 5 5 5 6 5 4 4 3 3 3 2 2 3 4 5 4 4 5 4 6 7 6 7 8 7 6 6
3 4 3 4 4 4 4 5 5 6 6 6 5 6 6 6 6 7 7 7 7 7 7 7 7 7 7 7 8 8 8 8 8 7 7 7 7 7 7 8 8 7 7 7 7 7 7 7 8 7 7 7 6 5 5 5 4 5 5 5 6 6 7 8 5 4 3 2 1 2 3 3 3 4 5 6 6 6 7 6 6 5 5 6 4
3 3 3 3 3 4 4 5 5 5 5 6 6 6 6 6 6 5 6 6 6 6 6 7 7 7 7 7 7 7 7 7 7 7 8 7 7 7 7 8 7 7 7 7 7 7 7 7 7 7 7 7 7 7 7 7 7 6 6 5 7 10 9 9 6 5 6 3 1 1 1 1 3 3 4 5 5 5 4 5 5 6 5 6 6
2 2 2 3 3 3 4 3 3 4 5 5 5 5 6 6 6 6 6 6 6 5 6 6 6 6 7 7 7 7 7 7 7 7 8 7 7 7 7 8 8 7 7 7 7 8 8 7 8 7 7 7 7 7 7 7 7 7 7 7 11 11 11 10 10 10 6 3 3 1 1 2 3 3 3 4 4 5 5 5 5 4 5 6 6
3 2 2 2 2 3 3 3 3 3 3 4 4 5 5 5 5 6 6 6 6 6 6 6 6 6 6 6 7 7 7 7 6 7 7 7 8 8 8 8 8 8 7 7 7 7 7 6 5 5 6 6 6 7 6 6 6 7 9 11 11 10 10 9 6 9 11 7 3 3 1 2 3 3 4 4 4 5 3 5 5 5 5 5 6
Wind_Direction
198 207 199 206 206 208 207 206 212 212 215 217 227 227 222 221 228 232 235 236 232 231 229 231 231 229 228 226 225 227 228 239 240 238 229 223 221 224 218 214 223 231 228 232 226 222 227 231 233 232 228 229 228 229 228 228 226 229 227 228 225 211 219 233 244 261 249 242 264 262 189 200 225 207 222 217 217 214 213 221 198 203 198 194 212
204 206 203 205 206 210 210 208 206 210 217 225 231 234 237 236 235 240 241 250 250 249 245 237 234 233 234 232 230 228 231 234 241 239 236 230 225 221 222 217 225 231 227 234 228 222 222 230 234 234 226 229 230 232 227 226 224 225 229 219 217 225 217 227 242 251 267 248 251 184 244 185 235 198 212 213 217 213 216 218 215 203 188 173 212
202 204 206 207 211 210 206 208 205 213 216 225 229 230 231 233 235 244 248 253 249 244 248 249 248 239 236 236 234 234 231 233 232 238 239 233 228 228 223 219 223 227 228 232 231 226 226 229 235 233 226 231 232 235 229 230 222 225 226 222 230 228 223 222 235 249 255 259 233 254 233 211 216 207 202 216 216 208 215 216 214 210 211 213 214
202 201 208 211 208 204 208 208 206 211 218 225 229 230 228 232 239 247 249 251 249 247 247 250 248 247 244 239 234 235 234 231 231 229 239 241 238 235 227 225 227 230 231 233 230 226 227 230 234 231 228 231 233 233 231 231 230 233 231 228 231 234 229 222 228 241 254 266 246 243 250 212 237 238 222 218 213 211 215 219 216 218 217 214 215
197 198 202 206 203 208 210 204 207 213 220 225 228 230 232 230 234 246 248 248 249 251 246 245 248 247 247 248 242 235 236 236 235 234 230 238 242 241 238 231 226 230 231 232 230 228 229 230 234 228 228 233 234 233 231 229 229 231 233 228 228 231 228 225 231 231 248 253 262 253 241 236 235 240 172 204 213 219 215 219 218 222 221 217 208
194 191 192 200 201 204 208 203 211 215 217 226 228 227 228 228 229 240 251 252 253 247 246 246 244 246 248 249 251 248 241 235 236 236 233 229 238 247 246 242 237 232 232 233 231 230 232 234 234 230 229 230 236 233 232 232 228 231 232 227 222 227 232 227 227 234 238 250 252 263 232 231 239 212 203 205 205 209 212 219 222 216 203 197 199
187 189 188 197 202 205 205 206 207 212 219 228 227 230 235 233 230 234 240 246 249 248 245 245 244 247 249 250 251 253 249 242 241 239 237 234 238 248 248 247 246 244 241 238 236 235 236 237 237 232 232 232 236 234 234 235 230 231 229 233 229 230 230 226 224 231 235 247 252 245 257 241 234 246 196 191 207 204 185 184 211 196 183 187 195
186 187 181 194 207 206 201 204 206 219 227 231 237 237 235 230 229 233 231 247 247 248 249 246 249 249 253 254 257 254 247 250 244 241 240 245 249 249 249 249 245 241 245 246 241 240 239 238 237 234 233 233 234 238 232 238 233 237 231 231 231 229 232 230 228 230 236 238 243 246 236 249 237 228 149 179 209 221 207 194 197 189 205 209 207
190 187 185 200 203 184 174 174 210 227 222 229 229 229 227 229 227 230 236 244 246 248 250 251 253 254 256 256 259 259 256 246 240 240 243 244 249 252 252 251 253 255 252 246 245 242 242 240 239 238 234 236 234 236 234 230 233 240 236 224 228 227 233 230 231 230 237 239 247 241 246 243 233 233 209 199 207 224 201 193 225 215 199 200 208
196 188 189 196 142 108 129 167 207 210 212 219 227 222 226 230 230 234 234 235 240 249 251 252 253 256 260 260 258 258 257 258 237 235 243 255 259 257 257 256 257 258 258 256 252 245 239 240 239 234 236 237 238 239 240 239 238 239 242 225 227 228 230 230 231 230 230 235 238 234 240 237 219 219 227 221 195 145 177 195 208 198 180 208 208
207 180 175 104 83 114 184 199 191 214 216 228 228 225 226 221 229 234 235 232 235 239 246 252 255 259 260 262 262 259 255 256 244 239 240 241 248 258 260 262 260 257 257 256 257 258 255 250 248 235 234 241 245 244 243 243 244 244 244 241 236 226 229 230 233 226 227 233 239 239 235 246 239 230 233 216 200 202 205 195 197 185 193 181 207
181 144 100 85 119 141 191 145 239 235 228 230 222 223 222 220 226 225 230 235 235 232 241 247 251 254 258 259 258 255 255 244 243 246 242 242 238 248 256 259 257 259 258 258 259 259 260 258 249 237 240 232 237 239 239 240 243 245 245 244 242 239 233 230 235 234 232 240 243 238 241 244 251 233 228 206 203 197 200 191 192 189 190 199 204
98 79 66 64 54 46 317 245 234 232 227 221 217 209 214 226 232 226 232 237 247 243 246 245 246 245 247 256 258 256 256 248 248 251 250 246 243 241 252 254 257 257 255 256 260 261 263 262 262 257 245 234 237 246 254 252 237 240 245 245 244 241 241 239 236 238 240 241 248 251 239 244 251 241 215 210 189 199 192 199 195 189 200 202 214
54 56 51 48 43 204 210 211 215 214 205 210 209 208 210 226 235 242 242 241 245 251 249 248 249 245 246 253 261 262 258 253 249 254 254 250 247 243 251 254 257 258 258 259 259 256 256 258 264 261 254 243 240 230 235 243 252 253 249 243 244 244 242 242 242 241 240 242 248 253 251 229 244 250 213 184 182 197 191 206 198 204 208 214 213
78 101 126 150 171 186 196 203 208 198 206 205 208 219 224 257 260 259 244 240 240 243 245 246 243 243 250 252 261 267 259 250 251 255 257 253 250 246 254 254 256 259 259 260 260 259 256 259 259 264 265 260 257 238 235 241 248 251 251 252 249 248 243 238 238 241 242 241 245 250 257 249 248 249 224 189 195 199 195 201 197 201 211 223 297
97 99 88 75 75 41 358 314 289 278 307 318 317 308 296 276 280 284 267 259 250 252 258 253 255 249 248 252 260 268 266 249 246 251 257 257 251 251 252 254 255 256 256 256 253 254 252 250 255 260 260 263 256 242 244 247 252 250 251 253 254 251 248 238 237 240 240 242 243 246 250 251 250 248 230 194 203 204 205 217 212 207 199 198 201
47 34 32 21 13 8 0 347 340 341 346 339 329 316 305 292 286 282 270 261 257 249 247 247 246 245 241 242 253 264 271 264 254 250 252 254 254 254 253 255 257 255 255 255 255 253 250 246 247 255 258 258 254 243 240 235 247 248 250 254 253 253 252 240 233 238 241 243 246 250 254 257 255 252 240 193 194 188 186 193 201 172 184 198 199
29 16 13 1 353 355 357 353 342 339 337 323 313 316 309 298 283 275 275 281 273 262 266 267 252 241 239 238 242 262 270 274 269 260 252 251 249 255 256 262 263 261 265 256 252 259 252 240 244 251 255 257 253 249 243 235 244 246 248 254 257 255 253 245 243 239 238 244 249 250 251 253 253 243 225 208 195 182 185 201 190 165 195 194 189
16 4 355 349 349 353 355 353 344 333 321 316 322 310 305 303 303 297 278 275 270 274 264 267 265 262 245 243 251 254 267 275 272 267 261 258 254 255 260 267 268 265 267 271 266 266 266 252 236 238 246 254 256 255 249 240 245 248 248 252 256 257 254 244 245 243 239 240 246 248 250 250 245 234 231 225 206 190 198 201 188 184 190 200 194
353 349 346 349 356 355 354 348 334 329 318 314 324 321 316 311 306 304 294 285 286 286 286 283 277 276 270 266 254 248 261 268 266 265 261 256 251 257 264 266 267 269 267 270 275 270 268 267 258 238 240 248 254 259 257 248 244 249 247 247 253 257 257 246 244 243 244 241 244 239 242 238 234 229 226 220 215 202 200 201 198 190 197 203 197
348 348 351 356 3 358 358 1 339 334 331 329 323 318 323 320 314 309 302 296 294 294 287 285 278 272 263 252 261 254 247 265 267 254 260 262 262 257 261 257 261 268 273 274 271 276 275 271 271 258 240 244 248 253 253 252 248 247 245 248 247 257 262 261 251 229 241 244 243 237 235 223 222 221 218 217 214 210 201 200 199 197 195 201 206
348 353 3 8 4 360 360 352 343 340 334 329 331 319 315 305 297 302 301 303 293 281 275 279 279 276 273 255 242 251 248 244 261 263 255 258 258 253 255 258 257 270 276 273 272 271 270 273 274 270 256 245 247 253 257 257 254 249 250 251 253 254 255 256 257 233 227 233 232 239 243 233 229 222 223 218 213 204 197 198 203 202 204 211 209
351 356 4 5 1 356 355 350 343 339 333 329 314 307 310 313 298 282 273 274 268 269 268 263 268 273 271 265 249 234 228 234 238 248 251 249 253 254 251 254 259 261 267 273 272 272 273 272 270 267 260 250 250 258 259 258 256 251 252 253 254 253 252 244 205 212 217 218 224 243 235 230 225 225 216 217 215 204 206 203 207 205 207 212 26
345 356 6 1 352 356 350 341 341 338 338 329 319 311 312 311 303 291 292 287 290 287 284 278 278 278 283 285 266 253 230 235 225 230 247 247 252 257 259 259 263 261 263 269 273 273 274 271 272 272 267 258 257 260 258 258 255 251 248 250 252 252 245 236 226 212 212 214 229 231 230 225 224 217 216 205 203 202 201 195 171 119 101 90 75
353 4 1 354 353 347 339 337 334 338 339 332 322 316 309 314 308 302 292 290 282 284 285 287 285 289 288 283 284 276 265 258 255 233 234 246 253 262 267 266 266 266 268 268 266 268 270 275 277 275 271 266 261 261 260 256 254 255 254 253 249 246 235 223 215 202 228 233 228 229 226 217 213 215 203 199 175 128 105 89 82 86 89 85 74
4 3 355 349 346 343 340 335 336 325 309 303 288 288 296 302 298 298 298 286 281 279 284 287 286 285 284 284 285 285 274 270 263 251 243 252 254 256 258 263 264 263 261 268 272 275 275 275 275 274 272 268 264 258 253 250 251 249 249 250 244 242 216 205 197 205 228 231 229 222 218 206 196 189 137 130 148 151 138 124 119 114 124 116 98
355 354 350 342 339 342 337 340 331 317 306 307 299 292 291 286 285 283 278 282 283 285 285 290 291 289 286 291 296 296 291 285 279 278 272 281 281 274 269 268 261 257 261 264 268 272 276 273 270 269 268 267 263 259 255 257 256 251 248 240 234 229 207 211 196 211 214 216 221 219 211 165 125 132 151 159 162 157 156 143 145 141 135 135 127
350 341 337 333 336 339 328 326 327 325 326 326 320 315 299 286 283 274 277 291 298 296 297 293 291 295 298 300 300 297 291 282 283 292 303 307 309 307 303 301 299 294 286 286 288 290 290 287 276 266 263 260 256 255 248 235 235 237 238 238 230 224 217 199 204 213 220 214 208 197 148 141 160 170 154 164 167 150 149 148 153 143 144 136 128
345 337 345 339 337 337 329 333 336 332 324 318 303 302 301 296 290 285 269 263 268 283 293 289 288 292 293 295 299 298 291 286 289 342 313 303 298 299 298 295 298 296 294 295 292 292 287 285 283 280 273 266 257 247 238 234 235 238 226 236 232 218 212 204 209 217 207 204 209 202 196 186 178 164 163 159 155 151 150 144 153 145 146 151 152
344 349 345 345 343 338 340 338 333 326 321 314 312 303 284 275 270 277 286 280 275 274 272 276 283 292 291 284 281 282 288 292 303 304 298 296 292 288 287 286 284 285 288 290 288 286 282 280 274 273 273 269 255 242 236 222 220 226 237 227 227 226 219 207 212 214 207 209 211 193 182 178 180 168 176 167 149 149 161 163 158 162 159 171 155
349 354 351 347 338 328 331 333 333 325 321 321 316 316 314 310 287 285 284 284 283 283 283 282 284 283 281 287 285 279 279 286 293 296 295 293 290 287 286 285 284 282 285 289 280 274 271 267 267 266 266 263 257 246 241 231 235 239 233 230 228 223 209 204 214 217 205 183 200 181 167 180 184 180 174 175 163 158 153 162 161 164 176 171 153
346 344 341 330 337 338 330 332 332 335 327 324 321 319 320 317 313 299 306 308 301 294 290 290 290 290 287 284 287 290 289 289 291 294 294 292 290 289 288 287 285 284 283 281 276 269 264 261 261 262 265 258 255 249 241 234 238 233 230 233 233 229 208 210 212 200 186 187 190 188 189 187 188 186 184 178 169 167 165 160 166 170 173 173 166
327 319 320 330 329 334 338 336 332 329 329 325 323 319 319 318 319 321 326 323 306 302 298 292 290 292 293 292 289 287 290 293 292 289 287 289 290 289 287 287 287 284 281 273 264 265 263 262 256 256 255 251 252 250 247 244 237 235 234 237 238 234 212 212 194 196 185 195 188 196 195 191 186 187 188 178 172 172 168 168 169 170 171 169 163
325 322 329 329 332 333 337 331 329 327 326 322 317 317 311 310 306 306 308 314 309 284 280 289 298 301 301 298 294 295 296 295 292 291 292 292 292 291 292 291 288 283 272 265 265 267 269 269 259 251 246 246 248 247 247 243 240 238 239 241 242 240 219 195 192 189 190 192 194 197 188 186 184 181 182 175 181 180 178 177 167 171 179 186 175
329 321 322 323 324 322 317 313 310 306 306 307 305 302 299 300 299 298 299 303 307 309 312 308 306 308 305 305 303 299 298 298 299 299 299 299 298 297 297 292 286 283 271 262 266 269 271 267 258 249 229 232 236 240 244 245 243 240 238 237 238 232 212 183 190 188 191 195 193 188 187 185 188 190 185 178 175 183 186 185 184 185 184 180 170
335 330 326 325 320 313 305 302 299 296 295 295 296 293 294 296 298 296 296 294 296 301 304 307 308 306 297 293 291 294 300 306 306 305 303 301 298 298 291 285 286 281 277 267 270 272 278 279 271 258 237 223 227 237 239 242 242 239 237 231 230 209 197 194 196 193 194 194 194 187 182 186 185 183 188 192 180 182 190 184 187 191 189 190 181
337 333 329 328 323 312 306 300 296 296 299 300 299 298 293 288 286 289 291 293 296 299 300 305 308 307 302 298 301 309 313 311 309 303 296 290 289 289 280 284 284 284 276 271 269 269 275 278 270 259 243 239 233 227 234 241 238 232 238 237 231 220 212 214 211 202 194 196 197 192 187 189 187 190 189 191 192 198 194 175 185 188 185 169 154
334 329 327 324 321 316 315 312 308 307 305 301 297 295 296 295 296 296 297 298 300 302 304 306 308 307 313 315 324 323 316 312 308 299 297 302 306 307 301 295 292 289 287 285 280 280 280 282 273 261 258 255 250 232 230 238 239 235 232 230 230 230 225 222 218 209 200 200 195 192 185 192 191 192 189 177 187 186 185 179 171 173 175 176 177
333 325 321 323 320 312 307 306 304 305 303 306 308 309 307 306 306 306 308 309 309 307 306 307 308 311 315 322 329 325 319 315 319 317 317 318 313 310 310 307 304 301 301 299 298 293 286 287 283 277 266 258 255 250 247 245 240 238 236 232 229 231 222 217 212 206 200 201 195 193 192 195 193 193 189 184 177 176 173 180 167 173 177 182 189
323 317 318 317 315 313 310 302 302 307 315 320 317 316 316 315 317 318 317 316 312 314 315 316 318 321 327 335 333 326 321 312 309 312 317 316 313 315 314 314 319 321 322 319 317 310 305 302 302 298 292 289 286 280 272 262 255 246 240 235 229 228 224 216 211 203 202 203 195 192 198 195 194 193 181 190 183 173 177 180 180 175 177 167 177
318 317 318 320 322 319 315 316 322 327 323 320 318 320 322 322 324 323 324 323 324 325 325 325 323 327 335 333 330 330 319 311 312 317 316 313 312 314 317 317 318 320 322 321 319 318 314 312 312 313 313 318 316 315 306 295 285 267 250 243 237 235 232 224 218 208 209 202 202 199 197 197 189 182 195 199 188 183 189 177 177 174 187 175 166
335 332 335 333 334 333 332 334 331 330 325 327 328 332 332 333 333 332 333 333 333 331 329 330 330 332 329 333 338 337 330 319 323 322 319 319 318 317 316 317 325 332 333 330 331 328 322 319 314 315 314 319 328 320 323 310 305 300 283 264 247 238 231 225 217 213 205 203 196 189 186 189 184 185 191 183 173 174 186 173 188 172 166 173 169
337 335 336 337 339 341 340 334 335 334 336 335 332 334 335 333 334 334 333 335 333 333 333 331 331 333 333 338 343 345 345 341 345 344 345 343 344 348 352 354 353 350 353 355 351 342 330 326 326 331 334 335 341 338 337 337 337 323 315 302 282 266 245 239 227 217 209 207 204 203 201 191 186 194 185 187 187 180 182 175 177 179 182 179 173
338 343 342 342 342 342 342 342 344 341 341 334 331 335 341 342 338 337 334 336 336 337 335 335 337 337 337 342 346 352 351 349 351 352 348 349 351 349 348 346 349 351 354 356 355 347 342 341 339 340 344 345 351 347 344 343 341 330 322 320 307 305 294 274 243 227 211 209 202 193 192 195 191 186 186 180 177 177 179 181 181 183 177 173 177
344 342 337 340 341 344 339 345 346 341 342 343 349 343 347 349 345 342 342 339 341 339 339 340 341 340 344 346 349 350 350 348 349 349 349 346 344 343 344 341 346 347 350 351 354 351 353 350 347 350 350 355 357 355 355 351 349 340 332 324 317 311 305 310 306 282 248 215 204 172 190 182 190 190 182 177 179 175 179 184 179 175 173 178 177
345 343 349 347 348 346 350 346 345 344 345 345 344 346 345 348 346 349 345 346 343 341 340 340 341 341 344 344 346 347 346 346 349 348 347 345 345 343 344 341 340 344 348 347 347 348 351 352 354 356 355 351 350 349 352 355 354 355 346 338 329 325 329 329 327 317 275 242 215 193 193 188 193 187 177 174 176 179 174 175 173 180 175 177 181
354 347 342 345 342 336 338 340 344 343 347 347 348 347 344 346 348 347 348 347 342 341 344 342 344 342 343 340 343 340 342 343 345 344 345 345 346 345 346 345 343 346 347 349 354 350 350 351 349 346 350 352 349 349 352 352 355 351 351 349 345 341 337 331 317 294 276 250 222 168 178 186 197 186 175 178 174 178 173 174 177 176 179 171 171
349 350 348 341 345 347 343 343 339 341 347 340 341 342 342 343 342 344 342 341 342 341 340 339 343 340 343 343 344 342 342 340 340 341 342 344 347 346 347 347 348 347 348 352 359 357 357 355 349 348 346 346 349 348 349 352 355 0 355 357 358 350 341 337 321 328 316 299 236 194 186 183 171 163 172 180 179 170 171 172 169 172 170 165 164
344 350 347 345 340 342 343 340 343 344 342 339 335 337 341 339 339 337 336 334 334 332 335 337 335 337 336 336 338 338 338 338 339 342 348 346 342 345 344 344 343 344 349 356 357 356 355 356 352 353 350 348 348 348 353 358 2 4 1 360 358 358 4 10 5 352 343 341 6 49 103 121 154 154 167 181 176 168 153 148 158 154 147 154 155
326 328 330 333 337 334 335 333 332 335 336 332 328 328 330 332 331 330 327 329 327 330 331 332 330 331 332 332 336 334 339 337 338 337 337 337 342 341 343 345 345 346 349 350 354 355 357 355 354 356 352 350 351 353 354 350 356 1 2 1 7 11 9 8 13 5 356 6 8 26 71 107 114 145 170 170 159 153 159 152 152 149 147 153 158
321 318 318 319 325 320 327 325 329 326 325 323 325 321 319 319 320 321 324 323 324 323 325 324 322 324 325 327 327 329 330 329 329 331 333 337 338 338 340 342 343 344 344 349 350 351 352 348 344 346 351 353 350 350 348 343 360 1 2 8 12 13 16 19 14 9 11 5 4 14 62 86 144 150 154 152 153 164 157 144 150 147 152 151 153